Sarasota, FL

6:31 AM EST on December 10, 2019 (GMT -0500)
Sarasota-bradenton

Weather History for KSRQ - October, 2019

Change the Weather History Date:

Sunday, October 20, 2019

  Actual Average Record
Temperature  
Mean Temperature 84 °F 75 °F  
Max Temperature 88 °F 84 °F 91 °F (2005)
Min Temperature 80 °F 67 °F 46 °F (1996)
Degree Days  
Heating Degree Days 0 0  
Month to date heating degree days 0 0  
Since 1 July heating degree days 0 0  
Cooling Degree Days 19 11  
Month to date cooling degree days 354 255  
Year to date cooling degree days 3811 3044  
Growing Degree Days 34 (Base 50)    
Moisture  
Dew Point 74 °F    
Average Humidity 73    
Maximum Humidity 85    
Minimum Humidity 59    
Precipitation  
Precipitation 0.00 in 0.09 in 3.53 in (1952)
Month to date precipitation 3.22 2.26  
Year to date precipitation 46.60 47.69  
Sea Level Pressure  
Sea Level Pressure 29.89 in    
Wind  
Wind Speed 7 mph ()    
Max Wind Speed 13 mph    
Max Gust Speed 16 mph    
Visibility 10.0 miles    
Events      
T = Trace of Precipitation, MM = Missing Value Source: Averaged Metar Reports

Daily Weather History Graph

Daily Weather History Graph

Search for Another Location

Airport or City:

Astronomy

Oct. 20, 2019 Rise Set
Actual Time 7:32 AM EDT 6:56 PM EDT
Civil Twilight 7:09 AM EDT 7:20 PM EDT
Nautical Twilight 6:41 AM EDT 7:47 PM EDT
Astronomical Twilight 6:14 AM EDT 8:14 PM EDT
Moon No Moon Rise 1:39 PM EDT (10/20)
Length of Visible Light 12h 11m
Length of Day
11h 23m
Waning Gibbous, 59% of the Moon is Illuminated
Oct 20
Waning Gibbous
Oct 21
Last Quarter
Oct 27
New
Nov 4
First Quarter
Nov 12
Full

Hourly Weather History & Observations

Time (EDT) Temp. Heat Index Dew Point Humidity Pressure Visibility Wind Dir Wind Speed Gust Speed Precip Events Conditions
12:53 AM 82.9 °F 90.2 °F 75.0 °F 77% 29.83 in 10.0 mi WSW 12.7 mph - N/A   Clear
1:53 AM 82.0 °F 88.6 °F 75.0 °F 79% 29.83 in 10.0 mi West 10.4 mph - N/A   Clear
2:53 AM 82.0 °F 88.6 °F 75.0 °F 79% 29.83 in 10.0 mi WSW 8.1 mph - N/A   Scattered Clouds
3:02 AM 82.0 °F 88.6 °F 75.0 °F 79% 29.83 in 10.0 mi West 9.2 mph - N/A   Mostly Cloudy
3:11 AM 82.0 °F 88.6 °F 75.0 °F 79% 29.83 in 10.0 mi West 10.4 mph - N/A   Scattered Clouds
3:53 AM 81.0 °F 86.7 °F 75.0 °F 82% 29.82 in 10.0 mi West 8.1 mph - N/A   Clear
4:53 AM 81.0 °F 86.2 °F 73.9 °F 79% 29.83 in 10.0 mi West 9.2 mph - N/A   Partly Cloudy
5:53 AM 81.0 °F 86.2 °F 73.9 °F 79% 29.83 in 10.0 mi West 8.1 mph - N/A   Clear
6:53 AM 80.1 °F 83.8 °F 72.0 °F 76% 29.86 in 10.0 mi WSW 6.9 mph - N/A   Clear
7:53 AM 81.0 °F 85.8 °F 73.0 °F 77% 29.88 in 10.0 mi West 6.9 mph - N/A   Partly Cloudy
8:53 AM 82.9 °F 89.4 °F 73.9 °F 74% 29.90 in 10.0 mi West 6.9 mph - N/A   Partly Cloudy
9:53 AM 84.9 °F 91.4 °F 73.0 °F 67% 29.93 in 10.0 mi WNW 9.2 mph - N/A   Scattered Clouds
10:53 AM 84.9 °F 91.4 °F 73.0 °F 67% 29.94 in 10.0 mi WNW 8.1 mph - N/A   Scattered Clouds
11:53 AM 87.1 °F 94.5 °F 73.0 °F 63% 29.94 in 10.0 mi WNW 9.2 mph - N/A   Scattered Clouds
12:53 PM 88.0 °F 94.7 °F 72.0 °F 59% 29.94 in 10.0 mi West 6.9 mph - N/A   Clear
1:53 PM 87.1 °F 94.5 °F 73.0 °F 63% 29.92 in 10.0 mi WSW 8.1 mph - N/A   Scattered Clouds
2:53 PM 87.1 °F 95.4 °F 73.9 °F 65% 29.90 in 10.0 mi West 8.1 mph - N/A   Clear
3:53 PM 87.1 °F 94.5 °F 73.0 °F 63% 29.90 in 10.0 mi West 9.2 mph - N/A   Partly Cloudy
4:53 PM 87.1 °F 93.6 °F 72.0 °F 61% 29.90 in 10.0 mi WNW 8.1 mph - N/A   Clear
5:53 PM 86.0 °F 92.2 °F 72.0 °F 63% 29.90 in 10.0 mi WNW 6.9 mph - N/A   Clear
6:53 PM 82.9 °F 88.8 °F 73.0 °F 72% 29.91 in 10.0 mi NW 4.6 mph - N/A   Clear
7:20 PM 81.0 °F 85.8 °F 73.0 °F 77% 29.91 in 10.0 mi North 4.6 mph - N/A   Scattered Clouds
7:53 PM 81.0 °F 85.8 °F 73.0 °F 77% 29.92 in 10.0 mi North 3.5 mph - N/A   Mostly Cloudy
8:53 PM 81.0 °F 86.2 °F 73.9 °F 79% 29.93 in 10.0 mi East 3.5 mph - N/A   Mostly Cloudy
9:53 PM 81.0 °F 86.2 °F 73.9 °F 79% 29.94 in 10.0 mi ENE 3.5 mph - N/A   Overcast
10:53 PM 81.0 °F 86.2 °F 73.9 °F 79% 29.95 in 10.0 mi Calm Calm - N/A   Overcast
11:53 PM 81.0 °F 85.8 °F 73.0 °F 77% 29.95 in 10.0 mi ENE 4.6 mph - N/A   Overcast